Time,TemperatureF,DewpointF,PressureIn,WindDirection,WindDirectionDegrees,WindSpeedMPH,WindSpeedGustMPH,Humidity,HourlyPrecipIn,Conditions,Clouds,dailyrainin,SolarRadiationWatts/m^2,SoftwareType,DateUTC
2013-04-03 00:11:00,43.8,14.0,30.14,SE,129,0.0,-999.0,30,-99.99,,,0.00,0,weatherlink.com 1.10,2013-04-03 06:11:00,
2013-04-03 00:26:00,42.0,14.0,30.15,SE,129,0.0,-999.0,32,-99.99,,,0.00,0,weatherlink.com 1.10,2013-04-03 06:26:00,
2013-04-03 00:41:00,41.1,15.0,30.15,SE,127,0.0,-999.0,34,-99.99,,,0.00,0,weatherlink.com 1.10,2013-04-03 06:41:00,
2013-04-03 00:56:00,42.2,16.0,30.15,SW,219,0.0,-999.0,34,-99.99,,,0.00,0,weatherlink.com 1.10,2013-04-03 06:56:00,
2013-04-03 01:11:00,42.6,15.0,30.15,SW,229,0.0,-999.0,33,-99.99,,,0.00,0,weatherlink.com 1.10,2013-04-03 07:11:00,
2013-04-03 01:26:00,42.2,15.0,30.15,WSW,248,0.0,-999.0,33,-99.99,,,0.00,0,weatherlink.com 1.10,2013-04-03 07:26:00,
2013-04-03 01:56:00,38.9,13.0,30.15,NNE,13,0.0,-999.0,34,-99.99,,,0.00,0,weatherlink.com 1.10,2013-04-03 07:56:00,
2013-04-03 02:11:00,37.1,13.0,30.14,NNE,13,0.0,-999.0,38,-99.99,,,0.00,0,weatherlink.com 1.10,2013-04-03 08:11:00,
2013-04-03 02:26:00,37.7,13.0,30.15,NNW,342,0.0,-999.0,36,-99.99,,,0.00,0,weatherlink.com 1.10,2013-04-03 08:26:00,
2013-04-03 02:41:00,37.7,13.0,30.15,NW,315,0.0,-999.0,36,-99.99,,,0.00,0,weatherlink.com 1.10,2013-04-03 08:41:00,
2013-04-03 03:11:00,36.1,13.0,30.15,NW,315,0.0,-999.0,38,-99.99,,,0.00,0,weatherlink.com 1.10,2013-04-03 09:11:00,
2013-04-03 03:26:00,35.7,13.0,30.15,WNW,288,0.0,-999.0,40,-99.99,,,0.00,0,weatherlink.com 1.10,2013-04-03 09:26:00,
2013-04-03 03:41:00,36.8,14.0,30.15,West,278,4.0,-999.0,39,-99.99,,,0.00,0,weatherlink.com 1.10,2013-04-03 09:41:00,
2013-04-03 03:56:00,36.0,14.0,30.16,West,280,0.0,-999.0,40,-99.99,,,0.00,0,weatherlink.com 1.10,2013-04-03 09:56:00,
2013-04-03 04:11:00,35.5,14.0,30.16,West,280,0.0,-999.0,41,-99.99,,,0.00,0,weatherlink.com 1.10,2013-04-03 10:11:00,
2013-04-03 04:41:00,35.5,15.0,30.15,West,279,0.0,-999.0,43,-99.99,,,0.00,0,weatherlink.com 1.10,2013-04-03 10:41:00,
2013-04-03 04:56:00,36.1,15.0,30.16,West,267,0.0,-999.0,42,-99.99,,,0.00,0,weatherlink.com 1.10,2013-04-03 10:56:00,
2013-04-03 05:11:00,36.4,15.0,30.16,WSW,249,4.0,-999.0,42,-99.99,,,0.00,0,weatherlink.com 1.10,2013-04-03 11:11:00,
2013-04-03 05:26:00,35.8,15.0,30.16,WSW,249,0.0,-999.0,42,-99.99,,,0.00,0,weatherlink.com 1.10,2013-04-03 11:26:00,
2013-04-03 05:41:00,34.6,15.0,30.16,West,281,3.0,-999.0,44,-99.99,,,0.00,0,weatherlink.com 1.10,2013-04-03 11:41:00,
2013-04-03 05:56:00,33.4,14.0,30.16,WNW,302,0.0,-999.0,45,-99.99,,,0.00,0,weatherlink.com 1.10,2013-04-03 11:56:00,
2013-04-03 06:12:00,33.7,14.0,30.16,NW,312,0.0,-999.0,44,-99.99,,,0.00,0,weatherlink.com 1.10,2013-04-03 12:12:00,
2013-04-03 06:27:00,34.2,14.0,30.16,WNW,298,0.0,-999.0,43,-99.99,,,0.00,0,weatherlink.com 1.10,2013-04-03 12:27:00,
2013-04-03 06:42:00,33.3,13.0,30.16,WNW,302,0.0,-999.0,44,-99.99,,,0.00,0,weatherlink.com 1.10,2013-04-03 12:42:00,
2013-04-03 06:57:00,32.8,14.0,30.16,North,350,3.0,-999.0,47,-99.99,,,0.00,7,weatherlink.com 1.10,2013-04-03 12:57:00,
2013-04-03 07:12:00,32.9,16.0,30.16,North,355,3.0,-999.0,50,-99.99,,,0.00,19,weatherlink.com 1.10,2013-04-03 13:12:00,
2013-04-03 07:27:00,32.7,15.0,30.17,NNW,338,0.0,-999.0,49,-99.99,,,0.00,49,weatherlink.com 1.10,2013-04-03 13:27:00,
2013-04-03 07:42:00,33.1,16.0,30.17,NNW,338,0.0,-999.0,50,-99.99,,,0.00,95,weatherlink.com 1.10,2013-04-03 13:42:00,
2013-04-03 07:57:00,34.5,17.0,30.17,North,355,0.0,-999.0,50,-99.99,,,0.00,153,weatherlink.com 1.10,2013-04-03 13:57:00,
2013-04-03 08:12:00,36.0,21.0,30.18,North,355,1.0,-999.0,55,-99.99,,,0.00,211,weatherlink.com 1.10,2013-04-03 14:12:00,
2013-04-03 08:27:00,37.9,21.0,30.18,North,355,0.0,-999.0,50,-99.99,,,0.00,264,weatherlink.com 1.10,2013-04-03 14:27:00,
2013-04-03 08:42:00,40.0,21.0,30.18,NNW,346,0.0,-999.0,46,-99.99,,,0.00,316,weatherlink.com 1.10,2013-04-03 14:42:00,
2013-04-03 08:57:00,42.0,20.0,30.18,NW,313,0.0,-999.0,41,-99.99,,,0.00,366,weatherlink.com 1.10,2013-04-03 14:57:00,
2013-04-03 09:12:00,44.5,20.0,30.18,NW,318,0.0,-999.0,38,-99.99,,,0.00,420,weatherlink.com 1.10,2013-04-03 15:12:00,
2013-04-03 09:27:00,47.1,19.0,30.18,WNW,292,0.0,-999.0,33,-99.99,,,0.00,487,weatherlink.com 1.10,2013-04-03 15:27:00,
2013-04-03 09:42:00,48.9,19.0,30.17,WNW,292,0.0,-999.0,31,-99.99,,,0.00,557,weatherlink.com 1.10,2013-04-03 15:42:00,
2013-04-03 09:57:00,52.0,20.0,30.17,WNW,286,2.0,-999.0,28,-99.99,,,0.00,701,weatherlink.com 1.10,2013-04-03 15:57:00,
2013-04-03 10:12:00,52.6,19.0,30.17,WSW,258,0.0,-999.0,27,-99.99,,,0.00,694,weatherlink.com 1.10,2013-04-03 16:12:00,
2013-04-03 10:28:00,54.8,20.0,30.16,WSW,253,0.0,-999.0,26,-99.99,,,0.00,677,weatherlink.com 1.10,2013-04-03 16:28:00,
2013-04-03 10:43:00,55.5,21.0,30.16,WNW,282,0.0,-999.0,26,-99.99,,,0.00,585,weatherlink.com 1.10,2013-04-03 16:43:00,
2013-04-03 10:58:00,55.7,21.0,30.16,West,269,0.0,-999.0,26,-99.99,,,0.00,659,weatherlink.com 1.10,2013-04-03 16:58:00,
2013-04-03 11:28:00,59.7,22.0,30.15,NNE,22,3.0,-999.0,23,-99.99,,,0.00,773,weatherlink.com 1.10,2013-04-03 17:28:00,
2013-04-03 11:43:00,62.5,22.0,30.15,North,355,0.0,-999.0,21,-99.99,,,0.00,796,weatherlink.com 1.10,2013-04-03 17:43:00,
2013-04-03 11:58:00,63.6,23.0,30.15,North,5,0.0,-999.0,21,-99.99,,,0.00,819,weatherlink.com 1.10,2013-04-03 17:58:00,
2013-04-03 12:13:00,63.6,22.0,30.15,ESE,102,2.0,-999.0,20,-99.99,,,0.00,835,weatherlink.com 1.10,2013-04-03 18:13:00,
2013-04-03 12:28:00,65.6,23.0,30.14,SW,231,4.0,-999.0,20,-99.99,,,0.00,858,weatherlink.com 1.10,2013-04-03 18:28:00,
2013-04-03 12:43:00,67.0,23.0,30.13,NNW,335,0.0,-999.0,19,-99.99,,,0.00,798,weatherlink.com 1.10,2013-04-03 18:43:00,
2013-04-03 12:58:00,66.2,24.0,30.12,NE,51,3.0,-999.0,20,-99.99,,,0.00,253,weatherlink.com 1.10,2013-04-03 18:58:00,
2013-04-03 13:13:00,66.4,24.0,30.11,West,279,5.0,-999.0,20,-99.99,,,0.00,1062,weatherlink.com 1.10,2013-04-03 19:13:00,
2013-04-03 13:28:00,65.2,23.0,30.11,SE,129,0.0,-999.0,20,-99.99,,,0.00,188,weatherlink.com 1.10,2013-04-03 19:28:00,
2013-04-03 13:43:00,63.4,25.0,30.12,West,281,2.0,-999.0,23,-99.99,,,0.00,84,weatherlink.com 1.10,2013-04-03 19:43:00,
2013-04-03 13:58:00,58.9,26.0,30.12,South,188,11.0,-999.0,28,-99.99,,,0.00,44,weatherlink.com 1.10,2013-04-03 19:58:00,
2013-04-03 14:13:00,56.7,28.0,30.12,South,182,1.0,-999.0,34,-99.99,,,0.00,74,weatherlink.com 1.10,2013-04-03 20:13:00,
2013-04-03 14:28:00,56.0,29.0,30.12,ESE,107,1.0,-999.0,36,-99.99,,,0.00,281,weatherlink.com 1.10,2013-04-03 20:28:00,
2013-04-03 14:43:00,58.1,27.0,30.12,SSE,152,7.0,-999.0,31,-99.99,,,0.00,197,weatherlink.com 1.10,2013-04-03 20:43:00,
2013-04-03 15:13:00,56.3,29.0,30.12,East,88,2.0,-999.0,35,-99.99,,,0.00,360,weatherlink.com 1.10,2013-04-03 21:13:00,
2013-04-03 15:43:00,57.9,26.0,30.12,ESE,112,16.0,-999.0,30,-99.99,,,0.00,130,weatherlink.com 1.10,2013-04-03 21:43:00,
2013-04-03 15:58:00,57.9,26.0,30.11,East,96,1.0,-999.0,30,-99.99,,,0.00,169,weatherlink.com 1.10,2013-04-03 21:58:00,
2013-04-03 16:43:00,60.6,26.0,30.11,NE,48,14.0,-999.0,27,-99.99,,,0.00,585,weatherlink.com 1.10,2013-04-03 22:43:00,
2013-04-03 17:13:00,59.4,27.0,30.11,North,5,7.0,-999.0,29,-99.99,,,0.00,209,weatherlink.com 1.10,2013-04-03 23:13:00,
2013-04-03 17:58:00,57.3,25.0,30.12,WNW,284,18.0,-999.0,29,-99.99,,,0.00,111,weatherlink.com 1.10,2013-04-03 23:58:00,
2013-04-03 18:14:00,56.8,26.0,30.11,NNW,339,2.0,-999.0,31,-99.99,,,0.00,118,weatherlink.com 1.10,2013-04-04 00:14:00,
2013-04-03 18:29:00,56.9,26.0,30.12,NNE,13,3.0,-999.0,30,-99.99,,,0.00,76,weatherlink.com 1.10,2013-04-04 00:29:00,
2013-04-03 19:28:00,54.4,28.0,30.16,NNE,26,8.0,-999.0,37,-99.99,,,0.00,16,weatherlink.com 1.10,2013-04-04 01:28:00,
2013-04-03 19:59:00,53.1,28.0,30.16,NNW,342,0.0,-999.0,38,-99.99,,,0.00,0,weatherlink.com 1.10,2013-04-04 01:59:00,
2013-04-03 20:13:00,52.1,28.0,30.17,North,355,0.0,-999.0,39,-99.99,,,0.00,0,weatherlink.com 1.10,2013-04-04 02:13:00,
2013-04-03 20:28:00,49.9,29.0,30.17,NNW,343,5.0,-999.0,44,-99.99,,,0.00,0,weatherlink.com 1.10,2013-04-04 02:28:00,
2013-04-03 20:44:00,48.8,29.0,30.18,North,5,2.0,-999.0,46,-99.99,,,0.00,0,weatherlink.com 1.10,2013-04-04 02:44:00,
2013-04-03 20:59:00,46.1,27.0,30.18,North,11,3.0,-999.0,48,-99.99,,,0.00,0,weatherlink.com 1.10,2013-04-04 02:59:00,
2013-04-03 21:29:00,46.3,28.0,30.20,North,5,4.0,-999.0,49,-99.99,,,0.00,0,weatherlink.com 1.10,2013-04-04 03:29:00,
2013-04-03 21:59:00,44.0,28.0,30.20,NNE,32,3.0,-999.0,53,-99.99,,,0.00,0,weatherlink.com 1.10,2013-04-04 03:59:00,
2013-04-03 22:15:00,44.2,28.0,30.21,NNE,32,0.0,-999.0,53,-99.99,,,0.00,0,weatherlink.com 1.10,2013-04-04 04:15:00,
2013-04-03 22:29:00,44.7,30.0,30.21,WNW,284,2.0,-999.0,56,-99.99,,,0.00,0,weatherlink.com 1.10,2013-04-04 04:29:00,
2013-04-03 22:44:00,45.2,30.0,30.21,WNW,284,0.0,-999.0,55,-99.99,,,0.00,0,weatherlink.com 1.10,2013-04-04 04:44:00,
2013-04-03 22:59:00,46.1,30.0,30.20,West,279,2.0,-999.0,53,-99.99,,,0.00,0,weatherlink.com 1.10,2013-04-04 04:59:00,
2013-04-03 23:14:00,45.8,29.0,30.21,West,279,0.0,-999.0,53,-99.99,,,0.00,0,weatherlink.com 1.10,2013-04-04 05:14:00,
2013-04-03 23:29:00,45.0,29.0,30.20,West,272,4.0,-999.0,54,-99.99,,,0.00,0,weatherlink.com 1.10,2013-04-04 05:29:00,
2013-04-03 23:44:00,43.2,29.0,30.21,WNW,285,4.0,-999.0,57,-99.99,,,0.00,0,weatherlink.com 1.10,2013-04-04 05:44:00,